Crane Lake, MN

9:11 PM CDT on April 26, 2018 (GMT -0500)
Crane Lake

Weather History for KCDD - October, 2013

Change the Weather History Date:

Tuesday, October 15, 2013

  Actual Average Record
Temperature  
Mean Temperature 40 °F -  
Max Temperature 42 °F 49 °F 66 °F (2016)
Min Temperature 39 °F 33 °F 19 °F (2006)
Degree Days  
Heating Degree Days 24    
Moisture  
Dew Point 40 °F    
Average Humidity 96    
Maximum Humidity 100    
Minimum Humidity 93    
Precipitation  
Precipitation 0.34 in - - ()
Sea Level Pressure  
Sea Level Pressure 30.02 in    
Wind  
Wind Speed 3 mph (NNE)    
Max Wind Speed 9 mph    
Max Gust Speed -    
Visibility 9 miles    
Events Rain    
Averages and records for this station are not official NWS values.
T = Trace of Precipitation, MM = Missing Value Source: NWS Daily Summary

Daily Weather History Graph

Daily Weather History Graph

Search for Another Location

Airport or City:

Astronomy

Oct. 15, 2013 Rise Set
Actual Time 7:29 AM CDT 6:20 PM CDT
Civil Twilight 6:58 AM CDT 6:51 PM CDT
Nautical Twilight 6:22 AM CDT 7:27 PM CDT
Astronomical Twilight 5:46 AM CDT 8:04 PM CDT
Moon 4:38 PM CDT (10/15) 3:38 AM CDT (10/15)
Length of Visible Light 11h 53m
Length of Day
10h 50m
Waxing Gibbous, 88% of the Moon is Illuminated
Oct 15
Waxing Gibbous
Oct 18
Full
Oct 26
Last Quarter
Nov 3
New
Nov 9
First Quarter

Hourly Weather History & Observations

Time (CDT) Temp. Windchill Dew Point Humidity Pressure Visibility Wind Dir Wind Speed Gust Speed Precip Events Conditions
12:12 AM 42.8 °F - 41.0 °F 93% 30.23 in 7.0 mi Calm Calm - 0.01 in Rain Light Rain
12:32 AM 42.8 °F - 41.0 °F 93% 30.22 in 4.0 mi Calm Calm - 0.03 in Rain Rain
12:52 AM 41.0 °F - 39.2 °F 93% 30.22 in 4.0 mi Calm Calm - 0.05 in Rain Rain
1:12 AM 41.0 °F - 39.2 °F 93% 30.21 in 7.0 mi Calm Calm - 0.01 in Rain Rain
1:33 AM 41.0 °F - 39.2 °F 93% 30.19 in 4.0 mi Calm Calm - 0.03 in Rain Light Rain
1:52 AM 41.0 °F 39.0 °F 39.2 °F 93% 30.18 in 7.0 mi NNE 3.5 mph - 0.04 in Rain Light Rain
2:12 AM 41.0 °F 39.0 °F 39.2 °F 93% 30.17 in 10.0 mi North 3.5 mph - N/A Rain Light Rain
2:32 AM 41.0 °F - 39.2 °F 93% 30.19 in 7.0 mi Calm Calm - N/A   Light Drizzle
2:52 AM 41.0 °F 39.0 °F 39.2 °F 93% 30.18 in 10.0 mi ENE 3.5 mph - N/A Rain Light Rain
3:12 AM 41.0 °F - 39.2 °F 93% 30.17 in 7.0 mi Calm Calm - N/A Rain Light Rain
3:33 AM 41.0 °F 38.0 °F 39.2 °F 93% 30.16 in 10.0 mi NNE 4.6 mph - 0.01 in Rain Light Rain
3:52 AM 41.0 °F 38.0 °F 39.2 °F 93% 30.15 in 7.0 mi NNE 4.6 mph - 0.01 in Rain Light Rain
4:12 AM 41.0 °F 38.0 °F 39.2 °F 93% 30.13 in 10.0 mi NNE 4.6 mph - 0.01 in Rain Rain
4:32 AM 41.0 °F 38.0 °F 39.2 °F 93% 30.13 in 10.0 mi NNE 4.6 mph - 0.01 in Rain Light Rain
4:52 AM 39.2 °F 35.9 °F 39.2 °F 100% 30.12 in 10.0 mi NNE 4.6 mph - 0.01 in   Overcast
5:13 AM 39.2 °F 37.0 °F 39.2 °F 100% 30.11 in 7.0 mi NNE 3.5 mph - N/A Rain Light Rain
5:32 AM 41.0 °F 39.0 °F 39.2 °F 93% 30.10 in 10.0 mi NNE 3.5 mph - 0.01 in Rain Rain
5:52 AM 41.0 °F - 39.2 °F 93% 30.08 in 7.0 mi Calm Calm - 0.01 in Rain Light Rain
6:12 AM 41.0 °F 38.0 °F 39.2 °F 93% 30.08 in 10.0 mi NE 4.6 mph - N/A   Light Drizzle
6:32 AM 41.0 °F 38.0 °F 39.2 °F 93% 30.08 in 10.0 mi North 4.6 mph - N/A   Overcast
6:52 AM 41.0 °F 38.0 °F 39.2 °F 93% 30.07 in 10.0 mi NNE 4.6 mph - N/A   Overcast
7:12 AM 41.0 °F 37.1 °F 39.2 °F 93% 30.06 in 10.0 mi NE 5.8 mph - N/A   Drizzle
7:32 AM 39.2 °F 37.0 °F 39.2 °F 100% 30.05 in 7.0 mi NE 3.5 mph - 0.01 in Rain Light Rain
7:52 AM 39.2 °F 37.0 °F 39.2 °F 100% 30.03 in 10.0 mi NE 3.5 mph - 0.01 in   Drizzle
8:12 AM 41.0 °F 39.0 °F 39.2 °F 93% 30.03 in 10.0 mi NE 3.5 mph - N/A   Overcast
8:32 AM 41.0 °F 39.0 °F 39.2 °F 93% 30.03 in 10.0 mi NE 3.5 mph - N/A Rain Light Rain
8:52 AM 41.0 °F 39.0 °F 41.0 °F 100% 30.03 in 10.0 mi NE 3.5 mph - N/A Rain Rain
9:12 AM 41.0 °F 38.0 °F 41.0 °F 100% 30.02 in 7.0 mi NE 4.6 mph - 0.01 in Rain Light Rain
9:32 AM 41.0 °F - 41.0 °F 100% 30.02 in 7.0 mi Calm Calm - 0.02 in Rain Rain
9:52 AM 41.0 °F 38.0 °F 41.0 °F 100% 30.01 in 5.0 mi North 4.6 mph - 0.05 in Rain Rain
10:12 AM 41.0 °F 38.0 °F 41.0 °F 100% 30.01 in 7.0 mi North 4.6 mph - 0.01 in Rain Light Rain
10:32 AM 41.0 °F 38.0 °F 41.0 °F 100% 30.00 in 10.0 mi NNE 4.6 mph - 0.01 in Rain Light Rain
10:52 AM 41.0 °F 36.4 °F 41.0 °F 100% 30.00 in 10.0 mi NNE 6.9 mph - 0.02 in Rain Light Rain
11:12 AM 41.0 °F 37.1 °F 41.0 °F 100% 30.00 in 10.0 mi NNE 5.8 mph - 0.01 in Rain Light Rain
11:32 AM 42.8 °F 39.3 °F 41.0 °F 93% 30.00 in 7.0 mi NNE 5.8 mph - 0.02 in Rain Light Rain
11:53 AM 42.8 °F 40.1 °F 41.0 °F 93% 29.99 in 10.0 mi NNE 4.6 mph - 0.03 in Rain Light Rain
12:12 PM 41.0 °F 36.4 °F 41.0 °F 100% 29.99 in 7.0 mi NNE 6.9 mph - 0.02 in Rain Rain
12:32 PM 41.0 °F 37.1 °F 41.0 °F 100% 29.98 in 10.0 mi NNE 5.8 mph - 0.04 in Rain Light Rain
12:52 PM 41.0 °F 36.4 °F 41.0 °F 100% 29.97 in 10.0 mi North 6.9 mph - 0.05 in Rain Light Rain
1:12 PM 41.0 °F 39.0 °F 41.0 °F 100% 29.97 in 10.0 mi NNE 3.5 mph - N/A   Drizzle
1:32 PM 41.0 °F 35.2 °F 41.0 °F 100% 29.96 in 10.0 mi NNE 9.2 mph - N/A   Light Drizzle
1:52 PM 41.0 °F 37.1 °F 41.0 °F 100% 29.95 in 10.0 mi North 5.8 mph - N/A Rain Light Rain
2:12 PM 41.0 °F 37.1 °F 41.0 °F 100% 29.95 in 10.0 mi NNE 5.8 mph - 0.01 in Rain Rain
2:32 PM 41.0 °F 38.0 °F 41.0 °F 100% 29.95 in 10.0 mi North 4.6 mph - 0.02 in Rain Light Rain
2:52 PM 41.0 °F 36.4 °F 41.0 °F 100% 29.95 in 10.0 mi North 6.9 mph - 0.03 in Rain Light Rain
3:12 PM 41.0 °F 35.2 °F 41.0 °F 100% 29.94 in 10.0 mi North 9.2 mph - 0.01 in Rain Light Rain
3:32 PM 41.0 °F 37.1 °F 41.0 °F 100% 29.94 in 10.0 mi North 5.8 mph - 0.02 in Rain Light Rain
3:52 PM 41.0 °F 36.4 °F 41.0 °F 100% 29.94 in 10.0 mi NNE 6.9 mph - 0.02 in Rain Light Rain
4:12 PM 41.0 °F 39.0 °F 41.0 °F 100% 29.94 in 10.0 mi NNE 3.5 mph - 0.01 in Rain Light Rain
4:32 PM 41.0 °F 36.4 °F 41.0 °F 100% 29.93 in 10.0 mi North 6.9 mph - 0.01 in Rain Rain
4:52 PM 41.0 °F 36.4 °F 41.0 °F 100% 29.93 in 10.0 mi North 6.9 mph - 0.01 in   Light Drizzle
5:12 PM 41.0 °F 37.1 °F 41.0 °F 100% 29.93 in 10.0 mi North 5.8 mph - N/A   Overcast
5:32 PM 41.0 °F 37.1 °F 41.0 °F 100% 29.94 in 10.0 mi NNE 5.8 mph - N/A   Overcast
5:52 PM 41.0 °F 38.0 °F 41.0 °F 100% 29.93 in 10.0 mi NNE 4.6 mph - N/A   Overcast
6:12 PM 42.8 °F - 41.0 °F 93% 29.94 in 10.0 mi Calm Calm - N/A   Overcast
6:32 PM 42.8 °F 39.3 °F 41.0 °F 93% 29.94 in 10.0 mi North 5.8 mph - N/A   Overcast
6:52 PM 42.8 °F 40.1 °F 41.0 °F 93% 29.94 in 10.0 mi North 4.6 mph - N/A   Overcast
7:12 PM 42.8 °F 40.1 °F 41.0 °F 93% 29.94 in 10.0 mi NNE 4.6 mph - N/A   Overcast
7:32 PM 41.0 °F 39.0 °F 41.0 °F 100% 29.94 in 10.0 mi North 3.5 mph - N/A   Overcast
7:53 PM 41.0 °F 39.0 °F 41.0 °F 100% 29.94 in 10.0 mi North 3.5 mph - N/A   Overcast
8:12 PM 41.0 °F 38.0 °F 41.0 °F 100% 29.94 in 10.0 mi NNE 4.6 mph - N/A   Overcast
8:32 PM 42.8 °F 39.3 °F 41.0 °F 93% 29.94 in 10.0 mi North 5.8 mph - N/A   Overcast
8:52 PM 42.8 °F 38.0 °F 41.0 °F 93% 29.94 in 10.0 mi North 8.1 mph - N/A   Overcast
9:12 PM 42.8 °F 38.0 °F 41.0 °F 93% 29.94 in 10.0 mi North 8.1 mph - N/A   Overcast
9:32 PM 41.0 °F 37.1 °F 41.0 °F 100% 29.95 in 10.0 mi North 5.8 mph - N/A   Overcast
9:52 PM 41.0 °F 38.0 °F 41.0 °F 100% 29.95 in 10.0 mi North 4.6 mph - N/A   Overcast
10:12 PM 41.0 °F 38.0 °F 41.0 °F 100% 29.94 in 10.0 mi North 4.6 mph - N/A   Overcast
10:32 PM 41.0 °F 38.0 °F 39.2 °F 93% 29.94 in 10.0 mi North 4.6 mph - N/A   Overcast
10:52 PM 41.0 °F 38.0 °F 39.2 °F 93% 29.94 in 10.0 mi NNE 4.6 mph - N/A   Overcast
11:12 PM 41.0 °F 39.0 °F 39.2 °F 93% 29.94 in 10.0 mi NNE 3.5 mph - N/A   Overcast
11:32 PM 41.0 °F - 39.2 °F 93% 29.94 in 10.0 mi Calm Calm - N/A   Overcast
11:52 PM 41.0 °F 39.0 °F 39.2 °F 93% 29.93 in 10.0 mi NNE 3.5 mph - N/A   Overcast